Showing default

CHUANG XIN 20B (CX-20B), 58426

Orbit data source: Space-Track

CHUANG XIN 20B (CX-20B), 58426 is a payload satellite owned by Zhongguo Xingwang (CN) in LEO that was launched on Thu, 23 Nov 2023 UTC via a CHANG ZHENG 2D/YZ-3 launch vehicle from the Xichang Space Center, China (XSC). Payload-class satellites include a variety of spacecraft equipped with specific instruments for various scientific and technological missions. These include communications satellites like Starlink; space stations such as the ISS; scientific satellites like the Hubble; Earth observation satellites from companies like Planet Labs, Umbra, and HawkEye 360; GPS; miniature CubeSats for education and research; and military/defense satellites.

Loading next visibility...
Identifier
58426, 2023-181B
Orbit
LEO
Country
Flag of CNCN / PRC
Related business
Manufacturer
SAST
Mission
Operational Civil Communications
Bus & Motor
Unknown
Mass
~300 kg wet, ~300 kg dry
Launch date (UTC)
2023-11-23 (3 years ago)
Launch vehicle
CHANG ZHENG 2D/YZ-3
Launch site
Xichang Space Center, China (XSC)
Object type
Payload
Rocket body
Debris
Shape & HBR
Box + 2 Pan, 1.3 m
Radar Cross Section
2.320 m², Large (>1 m²)

Expand to show TLE details & history
Last TLE update: 22 hours ago

TLE from 22 hours ago
0 CHUANG XIN 20B (CX-20B)
1 58426U 23181B   26172.53765391 -.00000088  00000-0  70886-4 0  9997
2 58426  49.9600 310.8263 0010994 282.1611  77.8035 13.41491546126324
Epoch: 2026-06-21T12:54Z
TLE epoch observation values (Epoch: 2026-06-21T12:54:13.297Z)
Latitude
0.00003°
Longitude
-152.46558°
Altitude
1,102.504 km
Speed
7.303 km/s
True Right ascension
20h 43m 18s
True Declination
0° 00' 00"
Sunlit
Object was in full shadow at epoch
Visualization orbit readout
Latitude
Unknown
Longitude
Unknown
Altitude
Unknown
Speed
Unknown
Apparent Right ascension
Unknown
Apparent Declination
Unknown
Sunlit
N/A
Visualization observer readout
Local Sidereal Time
21:30:27
Azimuth
Unknown
Elevation
Unknown
Doppler factor
Unknown
Orbital elements
Apogee altitude
1,112.67 km
Perigee altitude
1,096.218 km
Semi-major axis
7,482.581 km
Eccentricity
0.0011
Inclination
49.96°
RAAN
310.8263°
Arg. of periapsis
282.1611°
True anomaly
77.92667°
Mean anomaly
77.8035°
Eccentric anomaly
77.86508°
Mean motion
3.35325 °/min
Orbital period
107.36 mins
BSTAR
0.000070886
Loading maneuver chart data...
Computing Atmospheric mass density...
Loading historical data...
Loading historical data...
Loading historical data...
Loading historical data...
Loading historical data...
Loading historical data...
Loading historical data...
Other satellites on launch #181 in the year 2023 (2023-11-23 UTC)

Documentation

Showing up to 5 results
|